Погода в Благовещенке

Поиск расширенной информации на нашем сайте:

Полезная информация:

Новости сайта



02.01.2020
Опубликован Долгосрочный прогноз погоды по городам России и ближнего зарубежья на январь 2020 года.
Карты: Прогноз на январь и февраль 2020 года, Сравнение прогнозируемой аномалии приземной температуры воздуха на январь 2020 года по разным моделям.




Погода в Благовещенке - сегодня

Время (UTC), дата Ветер
(°,м/с) 
Видим.   Явления Облачность Т
(°С)
Тd
(°С)
f(%) Тe
(°С)
Pmin
(гПа)
dP
(гПа)
Po
(мм)
O2
(г/м3)
Тmin Tmax R s Состояние
почвы
12 22.10.21 210 (ЮЗ) 4000 м  дымка{ливн. осадки}  10/10 600 м 
[Sc]
+4.6 +2.6 87 +2  1007.1  1.1  742  293           
15 22.10.21 230 (ЮЗ) 11-16{19}  н/о  дымка  8/8 600 м 
[Sc]
+4.8 +2.6 86 +1  1007.7  0.6  742  293    +4.8       
18 22.10.21 220 (ЮЗ) 10-16{18}  н/о  дымка  10/10 600 м 
[Sc]
+6.1 +4.3 88 +3  1007.4  -0.2  742  292    +4.8  0.4     
21 22.10.21 230 (ЮЗ) 11-15{19}  н/о  дымка  10/10 600 м 
[Sc]
+6.6 +4.5 86 +3  1005.8  -1.5  741  291           
00 23.10.21 230 (ЮЗ) 10-15{17}  н/о  дымка  10/10 600 м 
[Sc]
+7.1 +4.6 84 +4  1005.3  -0.5  740  290           
03 23.10.21 230 (ЮЗ) 11-16{18}  4000 м  дымка  10/10 600 м 
[Sc]
+7.3 +4.3 81 +4  1006.4  1.1  741  290           
06 23.10.21 270 (З) 10-15{17}  10 км    9/0 средняя 
[Ac trans]
+9 +5 76 +6  1008.4  2.1  743  289  +4.8         
09 23.10.21 220 (ЮЗ) 12-17{20}  20000 м    4/0 средняя, верхняя 
[Ac trans|Ci fib]
+13.3 +3.9 53 +11  1008.7  0.5  743  285           
12 23.10.21 230 (ЮЗ) 13-20{21}  10 км    9/8 600 м верхняя 
[Sc|Ci fib]
+11.5 +6.2 70 +9  1010.3  1.5  744  287           
15 23.10.21 250 (З) 9-15{20}  н/о    ясно 
+8.9 +5.1 77 +6  1012.1  1.6  745  290    +13.6       
18 23.10.21 250 (З) 9{17}  н/о  дымка  ясно 
+7.3 +5.5 88 +4  1013.9  1.7  747  292    +13.6       
21 23.10.21 240 (ЮЗ) н/о  дымка  9/9 600 м 
[Sc]
+6.8 +5 88 +4  1015  747  293           
00 24.10.21 250 (З) н/о  дымка  ясно 
+6.8 +5.2 90 +5  1015.2  0.2  748  293           
03 24.10.21 260 (З) 2000 м  дымка  10/0 средняя, верхняя 
[Ac As|Ci fib]
+6.3 +5.4 94 +3  1016.5  1.2  749  294           
06 24.10.21 240 (ЮЗ) 4000 м  дымка  10/0 средняя 
[As trans]
+9.2 +7.3 88 +7  1017  0.8  749  291  +5.9         
09 24.10.21 200 (Ю) 11  10 км    10/4 600 м средняя 
[Sc|Ac As]
+11.1 +7.1 76 +9  1016  -1  748  289           
12 24.10.21 200 (Ю) 10  10 км    10/8 600 м средняя, верхняя 
[Sc|Ac trans|Ci fib]
+12.1 +8.3 78 +10  1013.2  -2.6  746  287           
15 24.10.21 210 (ЮЗ) 19-27  н/о    8/8 600 м 
[Sc]
+11.5 -1 42 +8  1011.4  -1.9  745  288    +12.9       
18 24.10.21 230 (ЮЗ) 15-22{28}  н/о    6/6 600 м 
[Sc]
+10.9 -1.9 41 +8  1010.5  -0.9  744  289    +12.9       
21 24.10.21 230 (ЮЗ) 12-18{22}  н/о    10/10 600 м 
[Sc]
+8.6 +3.8 72 +5  1010.6  744  290           
00 25.10.21 270 (З) 8{18}  н/о    10/10 600 м 
[Sc]
+7.2 +4 80 +5  1012.6  1.9  746  292           
03 25.10.21 260 (З) 10 км    8/8 600 м 
[Sc]
+4.7 +1.7 81 +2  1013.9  1.1  747  295           
06 25.10.21 310 (СЗ) 10 км    3/0 верхняя 
[Ci fib]
+8.9 +4.1 72 +9  1014.5  0.8  747  291  +4.4         
09 25.10.21 180 (Ю) 20000 м    9/9 600 м 
[Sc]
+9.6 +3.1 64 +9  1013.3  -1  746  290           
12 25.10.21 170 (Ю) 4000 м  слаб. ливневой дождь  10/10 300 м кучево-дожд. 
[Cb calv]
+6.8 +5.9 94 +5  1011.8  -1.7  745  292           
Время (UTC), дата Ветер
(°,м/с) 
Видим.   Явления Облачность Т
(°С)
Тd
(°С)
f(%) Тe
(°С)
Pmin
(гПа)
dP
(гПа)
Po
(мм)
O2
(г/м3)
Тmin Tmax R s Состояние
почвы

Для получения пояснительной информации подведите курсор к названию столбца.

ПОГОДА в Благовещенке - архив

Всё, что Вы хотите узнать о погоде в Благовещенке - удобно и подробно!

Выберите нужную дату (начиная с 1 января 2019* года) и нажмите кнопку "Найти".
Будут отображены архивные сводки погоды по пункту Благовещенка, начиная с указанной даты.


Отображать данные в формате CSV (для использования в таблицах Excel)


Внимание! Наш архив погоды предназначен исключительно для личного некоммерческого использования в познавательных целях. Если Вам необходимы официальные справки о состоянии погоды (для производственных, юридических, коммерческих и т.п. целей), обращайтесь в органы Росгидромета.

*Примечание: данная дата относится к архиву по метеостанциям СССР (Россия, СНГ, Балтия).
Архив по метеостанциям Зарубежной Европы и Азии (кроме Китая) хранится 10 дней, по другим регионам земного шара (Китай, Африка, Америка, Австралия, Океания) - 1 день.

Благовещенка - район местоположения метеостанции


Название, широта, долгота, высота метеостанции:
Благовещенка 54.4°ш. 67°д. 151 м над ур. моря [Казахстан]

Дополнительная информация

В oтличие oт бoльшинства пoгoдных сайтoв мы публикуем пoдрoбную метеoинфoрмацию в детальнoм прoфессиoнальнoм фoрмате.

Характеристики температуры и влажнoсти вoздуха измеряются на высoте 2 м в тени вдали oт зданий и деревьев.
Скoрoсть ветра измеряется на высoте 10 м (на урoвне рoста челoвека скoрoсть ветра ниже в 1.5-2 раза). Если метеoстанция нахoдится в гoрoде или в лесу, тo скoрoсть ветра занижена на 2-4 м/с пo сравнению с oткрытым местoм. Скoрoсть ветра над акватoриями крупных рек и oзёр, а также на вершинах хoлмoв на 2-5 м/с выше, чем в oбычных услoвиях.
Атмoсфернoе давление в разных тoчках местнoсти мoжет значительнo oтличаться oт давления на метеoстанции, в зависимoсти oт услoвий рельефа (при пoдъёме на 10 м давление пoнижается примернo на 1 мм рт.ст.).